Tarawa Terrace, NC

9:47 AM EST on February 06, 2016 (GMT -0500)
New River Marine Corps Air Station

Weather History for KNCA - August, 2012

Change the Weather History Date:

Monday, August 27, 2012

  Actual Average Record
Temperature  
Mean Temperature 80 °F -  
Max Temperature 89 °F 84 °F 93 °F (2003)
Min Temperature 73 °F 68 °F 64 °F (2001)
Cooling Degree Days 15    
Growing Degree Days 30 (Base 50)    
Moisture  
Dew Point 73 °F    
Average Humidity 83    
Maximum Humidity 94    
Minimum Humidity 63    
Precipitation  
Precipitation 0.00 in - - ()
Sea Level Pressure  
Sea Level Pressure 30.09 in    
Wind  
Wind Speed 5 mph (East)    
Max Wind Speed 16 mph    
Max Gust Speed -    
Visibility 10 miles    
Events      
Averages and records for this station are not official NWS values.
T = Trace of Precipitation, MM = Missing Value Source: NWS Daily Summary

Daily Weather History Graph

Daily Weather History Graph

Search for Another Location

Airport or City:

Trip Planner

Search our weather history database for the weather conditions in past years. The results will help you decide how hot, cold, wet, or windy it might be!

Date:

Astronomy

Aug. 27, 2012 Rise Set
Actual Time 6:39 AM EDT 7:42 PM EDT
Civil Twilight 6:13 AM EDT 8:08 PM EDT
Nautical Twilight 5:42 AM EDT 8:38 PM EDT
Astronomical Twilight 5:10 AM EDT 9:10 PM EDT
Moon 4:54 PM EDT (8/27) 2:28 AM EDT (8/27)
Length of Visible Light 13h 54m
Length of Day
13h 02m
Waxing Gibbous, 82% of the Moon is Illuminated
Aug 27
Waxing Gibbous
Aug 31
Full
Sep 8
Last Quarter
Sep 15
New
Sep 22
First Quarter

Hourly Weather History & Observations

Time (EDT) Temp. Heat Index Dew Point Humidity Pressure Visibility Wind Dir Wind Speed Gust Speed Precip Events Conditions
12:56 AM 75.0 °F - 72.0 °F 90% 30.12 in 10.0 mi NNE 4.6 mph - N/A   Clear
1:56 AM 75.0 °F - 72.0 °F 90% 30.11 in 10.0 mi ENE 3.5 mph - N/A   Clear
2:56 AM 75.0 °F - 72.0 °F 90% 30.10 in 10.0 mi NE 3.5 mph - N/A   Partly Cloudy
3:56 AM 73.9 °F - 72.0 °F 93% 30.10 in 10.0 mi Calm Calm - N/A   Clear
4:56 AM 75.0 °F - 73.0 °F 94% 30.09 in 10.0 mi East 5.8 mph - N/A   Mostly Cloudy
5:56 AM 73.9 °F - 72.0 °F 93% 30.10 in 10.0 mi NE 3.5 mph - N/A   Clear
6:56 AM 73.0 °F - 71.1 °F 93% 30.11 in 10.0 mi NNE 3.5 mph - N/A   Partly Cloudy
7:56 AM 75.9 °F - 73.0 °F 91% 30.12 in 10.0 mi NE 4.6 mph - N/A   Partly Cloudy
8:56 AM 80.1 °F 84.5 °F 73.9 °F 81% 30.12 in 10.0 mi NE 5.8 mph - N/A   Partly Cloudy
9:56 AM 82.9 °F 90.8 °F 75.9 °F 79% 30.13 in 10.0 mi East 4.6 mph - N/A   Scattered Clouds
10:56 AM 84.9 °F 93.3 °F 75.0 °F 72% 30.14 in 10.0 mi SE 16.1 mph - N/A   Scattered Clouds
11:56 AM 87.1 °F 96.3 °F 75.0 °F 67% 30.13 in 10.0 mi ESE 10.4 mph - N/A   Mostly Cloudy
12:56 PM 86.0 °F 95.1 °F 75.0 °F 70% 30.11 in 10.0 mi ESE 13.8 mph - N/A   Mostly Cloudy
1:56 PM 87.1 °F 94.5 °F 73.0 °F 63% 30.09 in 10.0 mi SSE 10.4 mph - N/A   Mostly Cloudy
2:56 PM 87.1 °F 96.3 °F 75.0 °F 67% 30.06 in 10.0 mi South 9.2 mph - N/A   Mostly Cloudy
3:56 PM 86.0 °F 93.0 °F 73.0 °F 65% 30.06 in 10.0 mi SSE 8.1 mph - N/A   Mostly Cloudy
4:56 PM 84.9 °F 93.3 °F 75.0 °F 72% 30.05 in 10.0 mi SSE 11.5 mph - N/A   Scattered Clouds
5:56 PM 82.9 °F 89.4 °F 73.9 °F 74% 30.06 in 10.0 mi South 8.1 mph - N/A   Partly Cloudy
6:56 PM 82.0 °F 85.9 °F 70.0 °F 67% 30.05 in 10.0 mi South 4.6 mph - N/A   Clear
7:56 PM 78.1 °F - 72.0 °F 81% 30.05 in 10.0 mi Calm Calm - N/A   Clear
8:56 PM 75.9 °F - 73.0 °F 91% 30.06 in 10.0 mi Calm Calm - N/A   Clear
9:56 PM 75.0 °F - 73.0 °F 94% 30.08 in 10.0 mi Calm Calm - N/A   Clear
10:56 PM 75.0 °F - 73.0 °F 94% 30.07 in 10.0 mi Calm Calm - N/A   Clear
11:36 PM 75.2 °F - 73.4 °F 94% 30.06 in 10.0 mi Calm Calm - N/A   Mostly Cloudy
11:43 PM 75.2 °F - 73.4 °F 94% 30.05 in 10.0 mi Calm Calm - N/A   Mostly Cloudy
11:56 PM 75.0 °F - 73.0 °F 94% 30.06 in 10.0 mi Calm Calm - N/A   Scattered Clouds